Location: Newark
(48.3453°N, 0.5589°E)
Time: 04:32:58
(UTC+00:00)

A-11 Canister half - Pass Details

Date: 09 December 2019
Orbit: 1517 x 1683 km, 47.2° (Epoch: 28 January)

Event Time Altitude Azimuth Distance (km) Brightness Sun altitude
Rises 12:26:39 0° 228° (SW) 4,742 12.4 18.4°
Reaches altitude 10° 12:29:45 10° 224° (SW) 3,782 12.1 18.3°
Maximum altitude 12:39:04 56° 150° (SSE) 1,878 10.2 18.0°
Drops below altitude 10° 12:48:43 10° 76° (ENE) 3,915 10.9 17.6°
Sets 12:51:58 0° 72° (ENE) 4,919 11.3 17.5°
